Location: Observatoire de Paris
(48.8363°N, 2.3365°E)
Time: 17:14:35
(UTC+01:00)

Vanguard 3 - Pass Details

Date: 06 August 2021
Orbit: 510 x 3260 km, 33.4° (Epoch: 23 September)

Event Time Altitude Azimuth Distance (km) Brightness Sun altitude
Rises 21:35:26 0° 268° (W) 6,111 12.4 -11.0°
Reaches altitude 10° 21:39:28 10° 261° (W) 5,413 11.9 -11.5°
Maximum altitude 21:54:30 38° 202° (SSW) 4,232 10.6 -13.3°
Enters shadow 22:08:31 16° 149° (SSE) 5,574 10.7 -14.8°
